Leeuwarden, Netherlands

5:40 AM CEST on June 28, 2017 (GMT +0200)
Leeuwarden Air Base

Weather History for EHLW - May, 2012

Change the Weather History Date:

Monday, May 14, 2012

  Actual Average Record
Temperature  
Mean Temperature 50 °F -  
Max Temperature 55 °F 61 °F 78 °F (2000)
Min Temperature 44 °F 47 °F 41 °F (2006)
Degree Days  
Heating Degree Days 16    
Moisture  
Dew Point 43 °F    
Average Humidity 77    
Maximum Humidity 87    
Minimum Humidity 48    
Precipitation  
Precipitation 0.01 in - - ()
Sea Level Pressure  
Sea Level Pressure 29.99 in    
Wind  
Wind Speed 10 mph ()    
Max Wind Speed 20 mph    
Max Gust Speed -    
Visibility 6.4 miles    
Events Rain    
Averages and records for this station are not official NWS values.
T = Trace of Precipitation, MM = Missing Value Source: Averaged Metar Reports

Daily Weather History Graph

Daily Weather History Graph

Search for Another Location

Airport or City:

Trip Planner

Search our weather history database for the weather conditions in past years. The results will help you decide how hot, cold, wet, or windy it might be!

Date:

Astronomy

May. 14, 2012 Rise Set
Actual Time 5:38 AM CEST 9:28 PM CEST
Civil Twilight 4:55 AM CEST 10:13 PM CEST
Nautical Twilight 3:53 AM CEST 11:15 PM CEST
Astronomical Twilight 1:51 AM CEST 1:00 AM CEST
Moon 2:57 AM CEST (5/14) 2:46 PM CEST (5/14)
Length of Visible Light 17h 18m
Length of Day
15h 49m
Waning Crescent, 35% of the Moon is Illuminated
May 14
Waning Crescent
May 21
New
May 28
First Quarter
Jun 4
Full
Jun 11
Last Quarter

Hourly Weather History & Observations

Time (CEST) Temp. Windchill Dew Point Humidity Pressure Visibility Wind Dir Wind Speed Gust Speed Precip Events Conditions
12:25 AM 44.6 °F 40.7 °F 37.4 °F 76% 30.18 in 6.2 mi SSW 6.9 mph - N/A   Mostly Cloudy
12:38 AM 44.6 °F 41.4 °F 37.4 °F 76% 30.18 in 6.2 mi SSW 5.8 mph - N/A   Scattered Clouds
12:55 AM 44.6 °F 41.4 °F 37.4 °F 76% 30.18 in 6.2 mi SSW 5.8 mph - N/A   Overcast
1:25 AM 44.6 °F 41.4 °F 41.0 °F 87% 30.15 in 6.2 mi South 5.8 mph - N/A   Overcast
1:27 AM 46.4 °F 44.3 °F 41.0 °F 81% 30.15 in 1.6 mi South 4.6 mph - N/A   Haze
1:33 AM 46.4 °F 43.5 °F 41.0 °F 81% 30.15 in 6.2 mi South 5.8 mph - N/A   Overcast
1:46 AM 46.4 °F 43.5 °F 41.0 °F 81% 30.15 in 6.2 mi SSW 5.8 mph - N/A   Overcast
1:55 AM 46.4 °F 43.5 °F 41.0 °F 81% 30.15 in 6.2 mi South 5.8 mph - N/A   Overcast
2:00 AM 46 °F - 41 °F 76% 30.16 in 14 mi South 6.7 mph - -   Overcast
2:25 AM 46.4 °F 42.9 °F 41.0 °F 81% 30.12 in 6.2 mi South 6.9 mph - N/A   Overcast
2:55 AM 46.4 °F 43.5 °F 41.0 °F 81% 30.12 in 6.2 mi South 5.8 mph - N/A   Mostly Cloudy
3:25 AM 44.6 °F 40.7 °F 41.0 °F 87% 30.12 in 6.2 mi South 6.9 mph - N/A   Unknown
3:55 AM 44.6 °F 40.2 °F 41.0 °F 87% 30.09 in 6.2 mi South 8.1 mph - N/A   Unknown
4:25 AM 44.6 °F 40.2 °F 39.2 °F 81% 30.09 in 6.2 mi South 8.1 mph - N/A   Unknown
4:55 AM 44.6 °F 40.7 °F 41.0 °F 87% 30.09 in 6.2 mi South 6.9 mph - N/A   Overcast
5:25 AM 44.6 °F 40.2 °F 41.0 °F 87% 30.06 in 6.2 mi South 8.1 mph - N/A   Overcast
5:55 AM 46.4 °F 42.4 °F 41.0 °F 81% 30.06 in 6.2 mi South 8.1 mph - N/A   Overcast
6:25 AM 46.4 °F 41.9 °F 41.0 °F 81% 30.04 in 6.2 mi South 9.2 mph - N/A   Overcast
6:55 AM 46.4 °F 42.4 °F 41.0 °F 81% 30.04 in 6.2 mi SSW 8.1 mph - N/A   Overcast
7:25 AM 48.2 °F - 41.0 °F 76% 30.04 in 6.2 mi SSW 10.4 mph - N/A   Overcast
7:54 AM 50.0 °F - 42.8 °F 76% 30.04 in 6.2 mi SSW 11.5 mph - N/A   Overcast
7:55 AM 50.0 °F - 42.8 °F 76% 30.04 in 6.2 mi SSW 11.5 mph - N/A   Overcast
8:00 AM 50 °F - 42 °F 67% 30.04 in 16 mi SSW 11.2 mph - -   Overcast
8:25 AM 50.0 °F - 42.8 °F 76% 30.04 in 6.2 mi SW 13.8 mph - N/A   Mostly Cloudy
8:55 AM 51.8 °F - 44.6 °F 76% 30.01 in 6.2 mi SW 12.7 mph - N/A   Overcast
9:16 AM 51.8 °F - 44.6 °F 76% 30.01 in 6.2 mi SW 13.8 mph - N/A   Overcast
9:25 AM 51.8 °F - 44.6 °F 76% 30.01 in 6.2 mi SW 16.1 mph - N/A   Mostly Cloudy
9:43 AM 51.8 °F - 42.8 °F 71% 30.01 in 6.2 mi SW 16.1 mph - N/A   Mostly Cloudy
9:44 AM 51.8 °F - 44.6 °F 76% 30.01 in 6.2 mi SW 16.1 mph - N/A   Mostly Cloudy
9:55 AM 53.6 °F - 44.6 °F 72% 30.01 in 6.2 mi SW 15.0 mph - N/A   Mostly Cloudy
10:02 AM 53.6 °F - 42.8 °F 67% 30.01 in 6.2 mi SW 16.1 mph - N/A   Mostly Cloudy
10:12 AM 53.6 °F - 44.6 °F 72% 30.01 in 6.2 mi SW 18.4 mph - N/A   Overcast
10:16 AM 53.6 °F - 42.8 °F 67% 30.01 in 6.2 mi SW 17.3 mph - N/A   Overcast
10:25 AM 53.6 °F - 42.8 °F 67% 30.01 in 6.2 mi SW 17.3 mph - N/A   Overcast
10:36 AM 53.6 °F - 42.8 °F 67% 30.01 in 6.2 mi WSW 19.6 mph - N/A   Overcast
10:55 AM 55.4 °F - 42.8 °F 63% 30.01 in 6.2 mi SW 16.1 mph - N/A   Overcast
11:25 AM 53.6 °F - 42.8 °F 67% 30.01 in 6.2 mi WSW 17.3 mph - N/A   Mostly Cloudy
11:55 AM 53.6 °F - 42.8 °F 67% 30.01 in 6.2 mi WSW 17.3 mph - N/A   Mostly Cloudy
12:25 PM 53.6 °F - 42.8 °F 67% 30.01 in 6.2 mi WSW 17.3 mph - N/A   Mostly Cloudy
12:55 PM 53.6 °F - 42.8 °F 67% 30.01 in 6.2 mi SW 15.0 mph - N/A   Mostly Cloudy
1:25 PM 55.4 °F - 42.8 °F 63% 29.98 in 6.2 mi SW 17.3 mph - N/A   Overcast
1:55 PM 55.4 °F - 41.0 °F 58% 29.98 in 6.2 mi SW 17.3 mph - N/A   Mostly Cloudy
2:00 PM 55 °F - 41 °F 48% 29.99 in 14 mi SW 15.7 mph - -   Overcast
2:25 PM 55.4 °F - 39.2 °F 54% 29.98 in 6.2 mi WSW 16.1 mph - N/A   Overcast
2:37 PM 53.6 °F - 41.0 °F 62% 29.98 in 6.2 mi SW 15.0 mph - N/A   Overcast
2:55 PM 53.6 °F - 42.8 °F 67% 29.98 in 6.2 mi WSW 18.4 mph - N/A   Mostly Cloudy
3:25 PM 53.6 °F - 42.8 °F 67% 29.98 in 6.2 mi WSW 17.3 mph - N/A   Mostly Cloudy
3:55 PM 53.6 °F - 42.8 °F 67% 29.95 in 6.2 mi WSW 17.3 mph - N/A   Overcast
4:25 PM 53.6 °F - 42.8 °F 67% 29.95 in 6.2 mi WSW 16.1 mph - N/A   Overcast
4:31 PM 53.6 °F - 42.8 °F 67% 29.95 in 6.2 mi WSW 16.1 mph - N/A   Mostly Cloudy
4:55 PM 51.8 °F - 41.0 °F 67% 29.95 in 6.2 mi WSW 18.4 mph - N/A   Mostly Cloudy
5:25 PM 51.8 °F - 42.8 °F 71% 29.95 in 6.2 mi WSW 13.8 mph - N/A   Overcast
5:43 PM 51.8 °F - 42.8 °F 71% 29.95 in 6.2 mi WSW 15.0 mph - N/A   Overcast
5:48 PM 51.8 °F - 42.8 °F 71% 29.95 in 6.2 mi WSW 15.0 mph - N/A   Overcast
5:55 PM 51.8 °F - 42.8 °F 71% 29.95 in 6.2 mi WSW 13.8 mph - N/A   Overcast
6:25 PM 51.8 °F - 44.6 °F 76% 29.92 in 6.2 mi WSW 11.5 mph - N/A   Drizzle
6:29 PM 50.0 °F - 44.6 °F 82% 29.92 in 5.6 mi WSW 12.7 mph - N/A   Heavy Drizzle
6:38 PM 50.0 °F - 46.4 °F 87% 29.92 in 5.6 mi WSW 12.7 mph - N/A Rain Heavy Rain Showers
6:45 PM 50.0 °F - 46.4 °F 87% 29.92 in 6.2 mi WSW 12.7 mph - N/A   Drizzle
6:50 PM 50.0 °F - 46.4 °F 87% 29.92 in 6.2 mi WSW 11.5 mph - N/A   Drizzle
6:55 PM 50.0 °F - 46.4 °F 87% 29.92 in 6.2 mi WSW 10.4 mph - N/A   Light Drizzle
6:56 PM 50.0 °F - 46.4 °F 87% 29.92 in 6.2 mi WSW 11.5 mph - N/A   Light Drizzle
7:08 PM 50.0 °F - 46.4 °F 87% 29.92 in 6.2 mi WSW 11.5 mph - N/A   Drizzle
7:21 PM 50.0 °F - 46.4 °F 87% 29.92 in 6.2 mi WSW 10.4 mph - N/A   Drizzle
7:25 PM 50.0 °F - 46.4 °F 87% 29.92 in 6.2 mi WSW 9.2 mph - N/A   Drizzle
7:55 PM 50.0 °F - 46.4 °F 87% 29.92 in 6.2 mi WSW 9.2 mph - N/A   Light Drizzle
8:00 PM 49 °F - 46 °F 86% 29.92 in 9 mi WSW 6.7 mph - - Rain Light Drizzle
8:04 PM 50.0 °F - 46.4 °F 87% 29.92 in 6.2 mi WSW 6.9 mph - N/A   Mostly Cloudy
8:13 PM 50.0 °F - 46.4 °F 87% 29.92 in 6.2 mi WSW 4.6 mph - N/A   Mostly Cloudy
8:16 PM 50.0 °F - 46.4 °F 87% 29.92 in 6.2 mi SW 4.6 mph - N/A   Mostly Cloudy
8:25 PM 50.0 °F - 46.4 °F 87% 29.92 in 6.2 mi SW 6.9 mph - N/A   Light Drizzle
8:31 PM 50.0 °F - 46.4 °F 87% 29.92 in 6.2 mi WSW 6.9 mph - N/A   Mostly Cloudy
8:37 PM 50.0 °F - 46.4 °F 87% 29.92 in 6.2 mi WSW 8.1 mph - N/A   Mostly Cloudy
8:41 PM 50.0 °F - 46.4 °F 87% 29.92 in 6.2 mi WSW 8.1 mph - N/A   Mostly Cloudy
8:55 PM 50.0 °F - 46.4 °F 87% 29.92 in 6.2 mi WSW 8.1 mph - N/A   Mostly Cloudy
8:59 PM 50.0 °F - 46.4 °F 87% 29.92 in 6.2 mi WSW 8.1 mph - N/A   Mostly Cloudy
9:03 PM 50.0 °F - 46.4 °F 87% 29.92 in 6.2 mi WSW 8.1 mph - N/A   Mostly Cloudy
9:16 PM 48.2 °F - 44.6 °F 87% 29.89 in 3.7 mi WSW 6.9 mph - N/A   Mostly Cloudy
9:20 PM 48.2 °F - 44.6 °F 87% 29.89 in 6.2 mi WSW 5.8 mph - N/A   Mostly Cloudy
9:25 PM 48.2 °F - 44.6 °F 87% 29.89 in 6.2 mi SW 5.8 mph - N/A   Mostly Cloudy
9:38 PM 48.2 °F - 44.6 °F 87% 29.89 in 6.2 mi SW 5.8 mph - N/A   Mostly Cloudy
9:55 PM 48.2 °F - 44.6 °F 87% 29.89 in 6.2 mi SSW 6.9 mph - N/A   Mostly Cloudy
10:25 PM 48.2 °F - 44.6 °F 87% 29.89 in 6.2 mi SSW 5.8 mph - N/A   Mostly Cloudy
10:55 PM 48.2 °F - 41.0 °F 76% 29.86 in 6.2 mi WSW 13.8 mph - N/A   Mostly Cloudy
11:25 PM 48.2 °F - 41.0 °F 76% 29.86 in 6.2 mi WSW 12.7 mph - N/A   Mostly Cloudy
11:55 PM 48.2 °F - 39.2 °F 71% 29.86 in 6.2 mi SW 11.5 mph - N/A   Mostly Cloudy